Time,TemperatureF,DewpointF,PressureIn,WindDirection,WindDirectionDegrees,WindSpeedMPH,WindSpeedGustMPH,Humidity,HourlyPrecipIn,Conditions,Clouds,dailyrainin,SoftwareType,DateUTC
2013-10-27 00:00:00,50.4,30.9,30.09,East,80,0.0,0.0,47,0.00,,---,0.00,VWS V14.01,2013-10-27 04:00:00,
2013-10-27 00:01:00,50.4,30.9,30.09,East,80,0.0,0.0,47,0.00,,---,0.00,VWS V14.01,2013-10-27 04:01:00,
2013-10-27 00:06:00,50.2,30.8,30.06,East,80,0.0,0.0,47,0.00,,---,0.00,VWS V14.01,2013-10-27 04:06:00,
2013-10-27 00:11:00,50.2,30.8,30.06,East,80,0.0,0.0,47,0.00,,---,0.00,VWS V14.01,2013-10-27 04:11:00,
2013-10-27 00:16:00,50.0,30.6,30.06,East,80,0.0,0.0,47,0.00,,---,0.00,VWS V14.01,2013-10-27 04:16:00,
2013-10-27 00:21:00,50.0,30.6,30.06,East,80,0.0,0.0,47,0.00,,---,0.00,VWS V14.01,2013-10-27 04:21:00,
2013-10-27 00:26:00,49.8,30.9,30.06,East,80,0.0,0.0,48,0.00,,---,0.00,VWS V14.01,2013-10-27 04:26:00,
2013-10-27 00:31:00,49.8,30.9,30.06,East,80,0.0,0.0,48,0.00,,---,0.00,VWS V14.01,2013-10-27 04:31:00,
2013-10-27 00:36:00,49.6,30.8,30.06,East,80,0.0,0.0,48,0.00,,---,0.00,VWS V14.01,2013-10-27 04:36:00,
2013-10-27 00:41:00,49.5,30.6,30.06,East,80,0.0,0.0,48,0.00,,---,0.00,VWS V14.01,2013-10-27 04:41:00,
2013-10-27 00:46:00,49.5,30.6,30.06,East,80,0.0,0.0,48,0.00,,---,0.00,VWS V14.01,2013-10-27 04:46:00,
2013-10-27 00:51:00,49.3,30.4,30.06,East,80,0.0,0.0,48,0.00,,---,0.00,VWS V14.01,2013-10-27 04:51:00,
2013-10-27 00:56:00,49.3,30.4,30.06,East,80,0.0,0.0,48,0.00,,---,0.00,VWS V14.01,2013-10-27 04:56:00,
2013-10-27 01:01:00,49.1,30.3,30.06,East,80,0.0,0.0,48,0.00,,---,0.00,VWS V14.01,2013-10-27 05:01:00,
2013-10-27 01:06:00,49.1,30.3,30.06,East,80,0.0,0.0,48,0.00,,---,0.00,VWS V14.01,2013-10-27 05:06:00,
2013-10-27 01:11:00,49.1,30.3,30.06,East,80,0.0,0.0,48,0.00,,---,0.00,VWS V14.01,2013-10-27 05:11:00,
2013-10-27 01:16:00,48.9,30.1,30.06,East,80,0.0,0.0,48,0.00,,---,0.00,VWS V14.01,2013-10-27 05:16:00,
2013-10-27 01:21:00,48.7,29.9,30.06,East,80,0.0,0.0,48,0.00,,---,0.00,VWS V14.01,2013-10-27 05:21:00,
2013-10-27 01:26:00,48.7,29.9,30.06,East,80,0.0,0.0,48,0.00,,---,0.00,VWS V14.01,2013-10-27 05:26:00,
2013-10-27 01:31:00,48.6,29.8,30.06,East,80,0.0,0.0,48,0.00,,---,0.00,VWS V14.01,2013-10-27 05:31:00,
2013-10-27 01:36:00,48.6,29.8,30.03,East,80,0.0,0.0,48,0.00,,---,0.00,VWS V14.01,2013-10-27 05:36:00,
2013-10-27 01:41:00,48.4,30.1,30.03,East,80,0.0,0.0,49,0.00,,---,0.00,VWS V14.01,2013-10-27 05:41:00,
2013-10-27 01:46:00,48.4,30.1,30.03,East,80,0.0,0.0,49,0.00,,---,0.00,VWS V14.01,2013-10-27 05:46:00,
2013-10-27 01:51:00,48.2,30.0,30.03,East,80,0.0,0.0,49,0.00,,---,0.00,VWS V14.01,2013-10-27 05:51:00,
2013-10-27 01:56:00,48.2,30.0,30.03,East,80,0.0,0.0,49,0.00,,---,0.00,VWS V14.01,2013-10-27 05:56:00,
2013-10-27 02:01:00,48.0,29.8,30.03,East,80,0.0,0.0,49,0.00,,---,0.00,VWS V14.01,2013-10-27 06:01:00,
2013-10-27 02:06:00,48.0,30.3,30.03,East,80,0.0,0.0,50,0.00,,---,0.00,VWS V14.01,2013-10-27 06:06:00,
2013-10-27 02:11:00,48.0,30.3,30.03,East,80,0.0,0.0,50,0.00,,---,0.00,VWS V14.01,2013-10-27 06:11:00,
2013-10-27 02:16:00,48.0,30.3,30.03,East,80,0.0,0.0,50,0.00,,---,0.00,VWS V14.01,2013-10-27 06:16:00,
2013-10-27 02:21:00,47.8,30.1,30.03,East,80,0.0,0.0,50,0.00,,---,0.00,VWS V14.01,2013-10-27 06:21:00,
2013-10-27 02:27:00,47.8,30.1,30.03,East,80,0.0,0.0,50,0.00,,---,0.00,VWS V14.01,2013-10-27 06:27:00,
2013-10-27 02:32:00,48.0,30.3,30.03,East,80,0.0,0.0,50,0.00,,---,0.00,VWS V14.01,2013-10-27 06:32:00,
2013-10-27 02:37:00,48.0,30.3,30.03,East,80,0.0,0.0,50,0.00,,---,0.00,VWS V14.01,2013-10-27 06:37:00,
2013-10-27 02:42:00,48.0,30.8,30.03,East,80,0.0,0.0,51,0.00,,---,0.00,VWS V14.01,2013-10-27 06:42:00,
2013-10-27 02:47:00,48.0,30.8,30.03,East,80,0.0,0.0,51,0.00,,---,0.00,VWS V14.01,2013-10-27 06:47:00,
2013-10-27 02:52:00,48.2,30.5,30.03,East,80,0.0,0.0,50,0.00,,---,0.00,VWS V14.01,2013-10-27 06:52:00,
2013-10-27 02:57:00,48.2,30.9,30.03,East,80,0.0,0.0,51,0.00,,---,0.00,VWS V14.01,2013-10-27 06:57:00,
2013-10-27 03:02:00,48.2,30.9,30.03,East,80,0.0,0.0,51,0.00,,---,0.00,VWS V14.01,2013-10-27 07:02:00,
2013-10-27 03:07:00,48.0,30.8,30.03,East,80,0.0,0.0,51,0.00,,---,0.00,VWS V14.01,2013-10-27 07:07:00,
2013-10-27 03:12:00,48.2,30.9,30.03,East,80,0.0,0.0,51,0.00,,---,0.00,VWS V14.01,2013-10-27 07:12:00,
2013-10-27 03:17:00,48.2,30.9,30.03,East,80,0.0,0.0,51,0.00,,---,0.00,VWS V14.01,2013-10-27 07:17:00,
2013-10-27 03:22:00,48.2,30.9,30.00,East,80,0.0,0.0,51,0.00,,---,0.00,VWS V14.01,2013-10-27 07:22:00,
2013-10-27 03:27:00,48.0,30.8,30.00,East,80,0.0,0.0,51,0.00,,---,0.00,VWS V14.01,2013-10-27 07:27:00,
2013-10-27 03:32:00,48.0,31.2,30.00,East,80,0.0,0.0,52,0.00,,---,0.00,VWS V14.01,2013-10-27 07:32:00,
2013-10-27 03:37:00,48.0,31.2,30.00,East,80,0.0,0.0,52,0.00,,---,0.00,VWS V14.01,2013-10-27 07:37:00,
2013-10-27 03:42:00,47.8,31.1,30.00,East,80,0.0,0.0,52,0.00,,---,0.00,VWS V14.01,2013-10-27 07:42:00,
2013-10-27 03:47:00,47.8,31.1,30.00,East,80,0.0,0.0,52,0.00,,---,0.00,VWS V14.01,2013-10-27 07:47:00,
2013-10-27 03:52:00,47.8,31.1,30.00,East,80,0.0,0.0,52,0.00,,---,0.00,VWS V14.01,2013-10-27 07:52:00,
2013-10-27 03:57:00,47.7,30.9,30.00,East,80,0.0,0.0,52,0.00,,---,0.00,VWS V14.01,2013-10-27 07:57:00,
2013-10-27 04:02:00,47.7,30.9,30.00,East,80,0.0,0.0,52,0.00,,---,0.00,VWS V14.01,2013-10-27 08:02:00,
2013-10-27 04:07:00,47.5,30.8,30.00,East,80,0.0,0.0,52,0.00,,---,0.00,VWS V14.01,2013-10-27 08:07:00,
2013-10-27 04:12:00,47.5,30.8,30.00,East,80,0.0,0.0,52,0.00,,---,0.00,VWS V14.01,2013-10-27 08:12:00,
2013-10-27 04:17:00,47.3,31.0,30.00,East,80,0.0,0.0,53,0.00,,---,0.00,VWS V14.01,2013-10-27 08:17:00,
2013-10-27 04:22:00,47.3,31.0,30.00,East,80,0.0,0.0,53,0.00,,---,0.00,VWS V14.01,2013-10-27 08:22:00,
2013-10-27 04:27:00,47.1,30.9,30.00,East,80,0.0,0.0,53,0.00,,---,0.00,VWS V14.01,2013-10-27 08:27:00,
2013-10-27 04:32:00,47.1,30.9,30.00,East,80,0.0,0.0,53,0.00,,---,0.00,VWS V14.01,2013-10-27 08:32:00,
2013-10-27 04:37:00,46.9,30.7,30.00,East,80,0.0,0.0,53,0.00,,---,0.00,VWS V14.01,2013-10-27 08:37:00,
2013-10-27 04:42:00,46.9,30.7,30.00,East,80,0.0,0.0,53,0.00,,---,0.00,VWS V14.01,2013-10-27 08:42:00,
2013-10-27 04:47:00,46.8,30.5,30.00,East,80,0.0,0.0,53,0.00,,---,0.00,VWS V14.01,2013-10-27 08:47:00,
2013-10-27 04:52:00,46.8,30.5,30.00,East,80,0.0,0.0,53,0.00,,---,0.00,VWS V14.01,2013-10-27 08:52:00,
2013-10-27 04:57:00,46.8,31.0,30.00,East,80,0.0,0.0,54,0.00,,---,0.00,VWS V14.01,2013-10-27 08:57:00,
2013-10-27 05:02:00,46.6,30.8,30.00,East,80,0.0,0.0,54,0.00,,---,0.00,VWS V14.01,2013-10-27 09:02:00,
2013-10-27 05:07:00,46.6,30.8,30.00,East,80,0.0,0.0,54,0.00,,---,0.00,VWS V14.01,2013-10-27 09:07:00,
2013-10-27 05:12:00,46.6,30.8,30.00,East,80,0.0,0.0,54,0.00,,---,0.00,VWS V14.01,2013-10-27 09:12:00,
2013-10-27 05:17:00,46.4,30.7,30.00,East,80,0.0,0.0,54,0.00,,---,0.00,VWS V14.01,2013-10-27 09:17:00,
2013-10-27 05:22:00,46.4,30.7,30.00,East,80,0.0,0.0,54,0.00,,---,0.00,VWS V14.01,2013-10-27 09:22:00,
2013-10-27 05:27:00,46.2,31.0,30.00,East,80,0.0,0.0,55,0.00,,---,0.00,VWS V14.01,2013-10-27 09:27:00,
2013-10-27 05:32:00,46.2,31.0,30.00,East,80,0.0,0.0,55,0.00,,---,0.00,VWS V14.01,2013-10-27 09:32:00,
2013-10-27 05:37:00,46.2,31.0,30.00,East,80,0.0,0.0,55,0.00,,---,0.00,VWS V14.01,2013-10-27 09:37:00,
2013-10-27 05:42:00,46.0,30.8,30.00,East,80,0.0,0.0,55,0.00,,---,0.00,VWS V14.01,2013-10-27 09:42:00,
2013-10-27 05:47:00,46.0,30.8,30.00,East,80,0.0,0.0,55,0.00,,---,0.00,VWS V14.01,2013-10-27 09:47:00,
2013-10-27 05:52:00,45.9,30.6,30.00,East,80,0.0,0.0,55,0.00,,---,0.00,VWS V14.01,2013-10-27 09:52:00,
2013-10-27 05:57:00,45.9,30.6,30.00,East,80,0.0,0.0,55,0.00,,---,0.00,VWS V14.01,2013-10-27 09:57:00,
2013-10-27 06:02:00,45.7,30.5,30.00,East,80,0.0,0.0,55,0.00,,---,0.00,VWS V14.01,2013-10-27 10:02:00,
2013-10-27 06:07:00,45.7,30.5,30.00,East,80,0.0,0.0,55,0.00,,---,0.00,VWS V14.01,2013-10-27 10:07:00,
2013-10-27 06:12:00,45.5,30.3,30.00,East,80,0.0,0.0,55,0.00,,---,0.00,VWS V14.01,2013-10-27 10:12:00,
2013-10-27 06:17:00,45.5,30.3,30.00,East,80,0.0,0.0,55,0.00,,---,0.00,VWS V14.01,2013-10-27 10:17:00,
2013-10-27 06:22:00,45.5,30.7,30.00,East,80,0.0,0.0,56,0.00,,---,0.00,VWS V14.01,2013-10-27 10:22:00,
2013-10-27 06:27:00,45.3,30.6,30.00,East,80,0.0,0.0,56,0.00,,---,0.00,VWS V14.01,2013-10-27 10:27:00,
2013-10-27 06:32:00,45.1,30.4,30.00,East,80,0.0,0.0,56,0.00,,---,0.00,VWS V14.01,2013-10-27 10:32:00,
2013-10-27 06:37:00,45.1,30.4,30.00,East,80,0.0,0.0,56,0.00,,---,0.00,VWS V14.01,2013-10-27 10:37:00,
2013-10-27 06:42:00,45.0,30.2,30.00,East,80,0.0,0.0,56,0.00,,---,0.00,VWS V14.01,2013-10-27 10:42:00,
2013-10-27 06:47:00,44.8,30.1,30.00,East,80,0.0,0.0,56,0.00,,---,0.00,VWS V14.01,2013-10-27 10:47:00,
2013-10-27 06:52:00,44.8,30.1,30.00,East,80,0.0,0.0,56,0.00,,---,0.00,VWS V14.01,2013-10-27 10:52:00,
2013-10-27 06:57:00,44.6,29.9,30.00,East,80,0.0,0.0,56,0.00,,---,0.00,VWS V14.01,2013-10-27 10:57:00,
2013-10-27 07:02:00,44.6,29.9,30.00,East,80,0.0,0.0,56,0.00,,---,0.00,VWS V14.01,2013-10-27 11:02:00,
2013-10-27 07:07:00,44.4,30.2,30.00,East,80,0.0,0.0,57,0.00,,---,0.00,VWS V14.01,2013-10-27 11:07:00,
2013-10-27 07:12:00,44.2,30.0,30.00,East,80,0.0,0.0,57,0.00,,---,0.00,VWS V14.01,2013-10-27 11:12:00,
2013-10-27 07:17:00,44.2,30.0,30.00,East,80,0.0,0.0,57,0.00,,---,0.00,VWS V14.01,2013-10-27 11:17:00,
2013-10-27 07:22:00,44.1,29.8,30.00,East,80,0.0,0.0,57,0.00,,---,0.00,VWS V14.01,2013-10-27 11:22:00,
2013-10-27 07:27:00,44.1,29.8,30.00,East,80,0.0,0.0,57,0.00,,---,0.00,VWS V14.01,2013-10-27 11:27:00,
2013-10-27 07:32:00,43.9,29.6,30.00,East,80,0.0,0.0,57,0.00,,---,0.00,VWS V14.01,2013-10-27 11:32:00,
2013-10-27 07:37:00,43.7,29.5,30.00,East,80,0.0,0.0,57,0.00,,---,0.00,VWS V14.01,2013-10-27 11:37:00,
2013-10-27 07:42:00,43.7,29.9,30.00,East,80,0.0,0.0,58,0.00,,---,0.00,VWS V14.01,2013-10-27 11:42:00,
2013-10-27 07:47:00,43.7,29.9,30.03,East,80,0.0,0.0,58,0.00,,---,0.00,VWS V14.01,2013-10-27 11:47:00,
2013-10-27 07:52:00,43.5,29.7,30.03,East,80,0.0,0.0,58,0.00,,---,0.00,VWS V14.01,2013-10-27 11:52:00,
2013-10-27 07:57:00,43.5,29.7,30.03,East,80,0.0,0.0,58,0.00,,---,0.00,VWS V14.01,2013-10-27 11:57:00,
2013-10-27 08:02:00,43.3,29.6,30.03,East,80,0.0,0.0,58,0.00,,---,0.00,VWS V14.01,2013-10-27 12:02:00,
2013-10-27 08:07:00,43.3,29.6,30.03,East,80,0.0,0.0,58,0.00,,---,0.00,VWS V14.01,2013-10-27 12:07:00,
2013-10-27 08:12:00,43.5,29.7,30.03,East,80,0.0,0.0,58,0.00,,---,0.00,VWS V14.01,2013-10-27 12:12:00,
2013-10-27 08:17:00,43.5,29.7,30.03,East,80,0.0,0.0,58,0.00,,---,0.00,VWS V14.01,2013-10-27 12:17:00,
2013-10-27 08:22:00,43.7,29.9,30.03,East,80,0.0,0.0,58,0.00,,---,0.00,VWS V14.01,2013-10-27 12:22:00,
2013-10-27 08:27:00,43.7,29.9,30.03,East,80,0.0,0.0,58,0.00,,---,0.00,VWS V14.01,2013-10-27 12:27:00,
2013-10-27 08:31:00,43.9,30.1,30.03,East,80,0.0,0.0,58,0.00,,---,0.00,VWS V14.01,2013-10-27 12:31:00,
2013-10-27 08:36:00,44.1,30.2,30.03,East,80,0.0,0.0,58,0.00,,---,0.00,VWS V14.01,2013-10-27 12:36:00,
2013-10-27 08:41:00,44.2,30.4,30.03,East,80,0.0,0.0,58,0.00,,---,0.00,VWS V14.01,2013-10-27 12:41:00,
2013-10-27 08:46:00,44.6,30.8,30.03,East,80,0.0,0.0,58,0.00,,---,0.00,VWS V14.01,2013-10-27 12:46:00,
2013-10-27 08:51:00,45.1,31.3,30.03,East,80,0.0,0.0,58,0.00,,---,0.00,VWS V14.01,2013-10-27 12:51:00,
2013-10-27 08:56:00,45.5,32.0,30.03,East,80,0.0,0.0,59,0.00,,---,0.00,VWS V14.01,2013-10-27 12:56:00,
2013-10-27 09:01:00,46.2,32.7,30.03,East,80,0.0,0.0,59,0.00,,---,0.00,VWS V14.01,2013-10-27 13:01:00,
2013-10-27 09:06:00,46.9,33.4,30.03,East,80,0.0,0.0,59,0.00,,---,0.00,VWS V14.01,2013-10-27 13:06:00,
2013-10-27 09:11:00,47.8,34.2,30.03,East,80,0.0,0.0,59,0.00,,---,0.00,VWS V14.01,2013-10-27 13:11:00,
2013-10-27 09:16:00,49.1,35.8,30.03,East,80,0.0,0.0,60,0.00,,---,0.00,VWS V14.01,2013-10-27 13:16:00,
2013-10-27 09:21:00,50.4,37.0,30.03,East,80,0.0,0.0,60,0.00,,---,0.00,VWS V14.01,2013-10-27 13:21:00,
2013-10-27 09:26:00,51.6,38.2,30.03,East,80,0.0,0.0,60,0.00,,---,0.00,VWS V14.01,2013-10-27 13:26:00,
2013-10-27 09:31:00,52.7,39.6,30.03,East,80,0.0,0.0,61,0.00,,---,0.00,VWS V14.01,2013-10-27 13:31:00,
2013-10-27 09:36:00,53.8,40.7,30.03,NE,45,0.0,0.0,61,0.00,,---,0.00,VWS V14.01,2013-10-27 13:36:00,
2013-10-27 09:41:00,54.7,41.5,30.03,NNE,30,0.0,0.0,61,0.00,,---,0.00,VWS V14.01,2013-10-27 13:41:00,
2013-10-27 09:46:00,55.6,41.9,30.03,NNE,19,0.0,2.7,60,0.00,,---,0.00,VWS V14.01,2013-10-27 13:46:00,
2013-10-27 09:51:00,56.1,42.4,30.03,NNE,19,0.0,0.0,60,0.00,,---,0.00,VWS V14.01,2013-10-27 13:51:00,
2013-10-27 09:56:00,56.8,43.5,30.03,NNE,21,0.0,0.0,61,0.00,,---,0.00,VWS V14.01,2013-10-27 13:56:00,
2013-10-27 10:01:00,57.7,44.8,30.03,NNE,19,0.0,0.0,62,0.00,,---,0.00,VWS V14.01,2013-10-27 14:01:00,
2013-10-27 10:06:00,58.5,45.1,30.03,NNE,19,0.0,0.0,61,0.00,,---,0.00,VWS V14.01,2013-10-27 14:06:00,
2013-10-27 10:11:00,59.0,45.2,30.03,North,357,0.0,2.2,60,0.00,,---,0.00,VWS V14.01,2013-10-27 14:11:00,
2013-10-27 10:16:00,59.7,45.4,30.03,North,2,0.0,0.0,59,0.00,,---,0.00,VWS V14.01,2013-10-27 14:16:00,
2013-10-27 10:21:00,60.3,45.4,30.03,North,2,0.0,0.0,58,0.00,,---,0.00,VWS V14.01,2013-10-27 14:21:00,
2013-10-27 10:26:00,60.6,45.8,30.03,ENE,61,0.0,0.0,58,0.00,,---,0.00,VWS V14.01,2013-10-27 14:26:00,
2013-10-27 10:31:00,60.8,45.5,30.03,ENE,60,3.1,3.1,57,0.00,,---,0.00,VWS V14.01,2013-10-27 14:31:00,
2013-10-27 10:36:00,61.0,45.2,30.03,WNW,300,3.1,3.1,56,0.00,,---,0.00,VWS V14.01,2013-10-27 14:36:00,
2013-10-27 10:41:00,61.7,44.9,30.03,ESE,113,0.0,0.0,54,0.00,,---,0.00,VWS V14.01,2013-10-27 14:41:00,
2013-10-27 10:46:00,62.4,44.1,30.03,NNE,28,0.0,0.0,51,0.00,,---,0.00,VWS V14.01,2013-10-27 14:46:00,
2013-10-27 10:51:00,63.0,44.0,30.03,NE,45,3.1,3.6,50,0.00,,---,0.00,VWS V14.01,2013-10-27 14:51:00,
2013-10-27 10:56:00,63.5,42.9,30.03,NW,311,0.0,0.0,47,0.00,,---,0.00,VWS V14.01,2013-10-27 14:56:00,
2013-10-27 11:01:00,64.0,42.9,30.03,NE,44,3.6,4.0,46,0.00,,---,0.00,VWS V14.01,2013-10-27 15:01:00,
2013-10-27 11:06:00,64.4,42.6,30.03,WNW,298,2.7,4.9,45,0.00,,---,0.00,VWS V14.01,2013-10-27 15:06:00,
2013-10-27 11:11:00,64.6,42.2,30.03,SW,218,0.0,0.0,44,0.00,,---,0.00,VWS V14.01,2013-10-27 15:11:00,
2013-10-27 11:16:00,64.9,42.5,30.03,NNW,332,3.6,3.6,44,0.00,,---,0.00,VWS V14.01,2013-10-27 15:16:00,
2013-10-27 11:21:00,65.3,42.8,30.03,NE,52,0.0,0.0,44,0.00,,---,0.00,VWS V14.01,2013-10-27 15:21:00,
2013-10-27 11:26:00,65.5,42.4,30.03,West,273,3.6,4.9,43,0.00,,---,0.00,VWS V14.01,2013-10-27 15:26:00,
2013-10-27 11:31:00,65.8,42.7,30.03,South,177,0.0,0.0,43,0.00,,---,0.00,VWS V14.01,2013-10-27 15:31:00,
2013-10-27 11:36:00,66.0,42.9,30.03,NNE,16,0.0,3.6,43,0.00,,---,0.00,VWS V14.01,2013-10-27 15:36:00,
2013-10-27 11:41:00,66.4,42.6,30.03,NE,37,0.0,0.0,42,0.00,,---,0.00,VWS V14.01,2013-10-27 15:41:00,
2013-10-27 11:46:00,66.6,42.8,30.03,NW,308,4.0,4.0,42,0.00,,---,0.00,VWS V14.01,2013-10-27 15:46:00,
2013-10-27 11:51:00,66.7,41.7,30.03,NNE,33,4.0,4.0,40,0.00,,---,0.00,VWS V14.01,2013-10-27 15:51:00,
2013-10-27 11:56:00,67.1,42.0,30.03,SW,235,0.0,2.7,40,0.00,,---,0.00,VWS V14.01,2013-10-27 15:56:00,
2013-10-27 12:01:00,67.3,42.2,30.03,NE,40,0.0,2.7,40,0.00,,---,0.00,VWS V14.01,2013-10-27 16:01:00,
2013-10-27 12:06:00,67.6,42.5,30.03,ENE,72,0.0,0.0,40,0.00,,---,0.00,VWS V14.01,2013-10-27 16:06:00,
2013-10-27 12:11:00,67.8,42.6,30.03,NE,35,4.0,4.0,40,0.00,,---,0.00,VWS V14.01,2013-10-27 16:11:00,
2013-10-27 12:16:00,68.0,42.8,30.03,NNW,332,0.0,4.0,40,0.00,,---,0.00,VWS V14.01,2013-10-27 16:16:00,
2013-10-27 12:21:00,68.4,43.1,30.03,East,100,3.1,3.6,40,0.00,,---,0.00,VWS V14.01,2013-10-27 16:21:00,
2013-10-27 12:26:00,68.5,43.3,30.03,SSE,168,4.0,4.9,40,0.00,,---,0.00,VWS V14.01,2013-10-27 16:26:00,
2013-10-27 12:31:00,68.5,43.3,30.03,ENE,67,2.7,6.3,40,0.00,,---,0.00,VWS V14.01,2013-10-27 16:31:00,
2013-10-27 12:36:00,68.7,43.5,30.03,SE,124,2.2,2.7,40,0.00,,---,0.00,VWS V14.01,2013-10-27 16:36:00,
2013-10-27 12:42:00,68.9,43.6,30.03,ENE,61,3.6,4.0,40,0.00,,---,0.00,VWS V14.01,2013-10-27 16:42:00,
2013-10-27 12:47:00,68.9,43.6,30.03,East,86,0.0,2.7,40,0.00,,---,0.00,VWS V14.01,2013-10-27 16:47:00,
2013-10-27 12:52:00,69.1,43.8,30.03,NE,56,2.7,2.7,40,0.00,,---,0.00,VWS V14.01,2013-10-27 16:52:00,
2013-10-27 12:57:00,69.1,43.8,30.03,ENE,60,0.0,0.0,40,0.00,,---,0.00,VWS V14.01,2013-10-27 16:57:00,
2013-10-27 13:02:00,69.3,43.9,30.03,NE,55,0.0,0.0,40,0.00,,---,0.00,VWS V14.01,2013-10-27 17:02:00,
2013-10-27 13:07:00,69.6,44.2,30.03,NE,51,3.6,3.6,40,0.00,,---,0.00,VWS V14.01,2013-10-27 17:07:00,
2013-10-27 13:12:00,70.0,43.9,30.03,NNE,15,0.0,0.0,39,0.00,,---,0.00,VWS V14.01,2013-10-27 17:12:00,
2013-10-27 13:17:00,70.2,42.7,30.03,East,92,0.0,0.0,37,0.00,,---,0.00,VWS V14.01,2013-10-27 17:17:00,
2013-10-27 13:22:00,70.5,44.4,30.03,North,357,3.1,4.0,39,0.00,,---,0.00,VWS V14.01,2013-10-27 17:22:00,
2013-10-27 13:27:00,70.5,43.0,30.03,SW,217,3.1,3.6,37,0.00,,---,0.00,VWS V14.01,2013-10-27 17:27:00,
2013-10-27 13:32:00,70.7,43.2,30.03,WSW,256,0.0,0.0,37,0.00,,---,0.00,VWS V14.01,2013-10-27 17:32:00,
2013-10-27 13:37:00,70.9,43.3,30.03,NE,56,0.0,3.1,37,0.00,,---,0.00,VWS V14.01,2013-10-27 17:37:00,
2013-10-27 13:42:00,71.1,43.5,30.03,NNE,30,0.0,3.6,37,0.00,,---,0.00,VWS V14.01,2013-10-27 17:42:00,
2013-10-27 13:47:00,71.2,43.7,30.03,WSW,254,3.6,3.6,37,0.00,,---,0.00,VWS V14.01,2013-10-27 17:47:00,
2013-10-27 13:52:00,71.4,43.8,30.03,West,274,2.2,2.2,37,0.00,,---,0.00,VWS V14.01,2013-10-27 17:52:00,
2013-10-27 13:57:00,71.6,43.3,30.03,SSW,198,0.0,0.0,36,0.00,,---,0.00,VWS V14.01,2013-10-27 17:57:00,
2013-10-27 14:02:00,72.0,43.6,30.00,ENE,69,0.0,3.1,36,0.00,,---,0.00,VWS V14.01,2013-10-27 18:02:00,
2013-10-27 14:07:00,72.1,43.7,30.00,NNW,329,0.0,0.0,36,0.00,,---,0.00,VWS V14.01,2013-10-27 18:07:00,
2013-10-27 14:12:00,72.5,44.1,30.00,East,81,0.0,0.0,36,0.00,,---,0.00,VWS V14.01,2013-10-27 18:12:00,
2013-10-27 14:17:00,72.7,44.2,30.00,NE,40,0.0,0.0,36,0.00,,---,0.00,VWS V14.01,2013-10-27 18:17:00,
2013-10-27 14:22:00,72.7,44.2,30.00,NNE,19,3.6,3.6,36,0.00,,---,0.00,VWS V14.01,2013-10-27 18:22:00,
2013-10-27 14:27:00,72.7,44.2,30.00,ENE,58,2.7,4.9,36,0.00,,---,0.00,VWS V14.01,2013-10-27 18:27:00,
2013-10-27 14:32:00,72.7,44.2,30.00,NE,43,0.0,0.0,36,0.00,,---,0.00,VWS V14.01,2013-10-27 18:32:00,
2013-10-27 14:37:00,72.7,44.2,30.00,North,0,2.7,4.0,36,0.00,,---,0.00,VWS V14.01,2013-10-27 18:37:00,
2013-10-27 14:42:00,72.9,44.4,30.00,NW,313,0.0,0.0,36,0.00,,---,0.00,VWS V14.01,2013-10-27 18:42:00,
2013-10-27 14:47:00,72.9,44.4,30.00,NNW,345,3.1,3.1,36,0.00,,---,0.00,VWS V14.01,2013-10-27 18:47:00,
2013-10-27 14:52:00,72.9,44.4,30.00,East,87,0.0,3.1,36,0.00,,---,0.00,VWS V14.01,2013-10-27 18:52:00,
2013-10-27 14:57:00,73.0,44.5,30.00,West,262,0.0,0.0,36,0.00,,---,0.00,VWS V14.01,2013-10-27 18:57:00,
2013-10-27 15:02:00,73.0,44.5,30.00,West,267,0.0,0.0,36,0.00,,---,0.00,VWS V14.01,2013-10-27 19:02:00,
2013-10-27 15:07:00,73.4,44.8,30.00,North,353,3.6,3.6,36,0.00,,---,0.00,VWS V14.01,2013-10-27 19:07:00,
2013-10-27 15:12:00,73.6,45.0,30.00,ENE,73,0.0,2.7,36,0.00,,---,0.00,VWS V14.01,2013-10-27 19:12:00,
2013-10-27 15:17:00,73.8,45.2,30.00,NE,39,3.6,3.6,36,0.00,,---,0.00,VWS V14.01,2013-10-27 19:17:00,
2013-10-27 15:22:00,73.9,45.3,30.00,West,263,0.0,0.0,36,0.00,,---,0.00,VWS V14.01,2013-10-27 19:22:00,
2013-10-27 15:27:00,74.1,45.5,30.00,SE,134,0.0,0.0,36,0.00,,---,0.00,VWS V14.01,2013-10-27 19:27:00,
2013-10-27 15:32:00,74.1,45.5,30.00,NNE,14,0.0,0.0,36,0.00,,---,0.00,VWS V14.01,2013-10-27 19:32:00,
2013-10-27 15:37:00,74.3,45.7,30.00,ENE,67,0.0,0.0,36,0.00,,---,0.00,VWS V14.01,2013-10-27 19:37:00,
2013-10-27 15:42:00,74.3,45.7,30.00,NNE,32,2.2,4.0,36,0.00,,---,0.00,VWS V14.01,2013-10-27 19:42:00,
2013-10-27 15:47:00,74.3,45.7,30.00,NNE,27,4.0,4.0,36,0.00,,---,0.00,VWS V14.01,2013-10-27 19:47:00,
2013-10-27 15:52:00,74.3,45.7,30.00,North,353,2.2,3.1,36,0.00,,---,0.00,VWS V14.01,2013-10-27 19:52:00,
2013-10-27 15:57:00,74.1,45.5,30.00,NE,56,0.0,0.0,36,0.00,,---,0.00,VWS V14.01,2013-10-27 19:57:00,
2013-10-27 16:02:00,74.1,45.5,30.00,NE,45,0.0,0.0,36,0.00,,---,0.00,VWS V14.01,2013-10-27 20:02:00,
2013-10-27 16:07:00,73.9,45.3,30.00,NE,54,0.0,0.0,36,0.00,,---,0.00,VWS V14.01,2013-10-27 20:07:00,
2013-10-27 16:12:00,73.9,45.3,30.00,ENE,78,0.0,0.0,36,0.00,,---,0.00,VWS V14.01,2013-10-27 20:12:00,
2013-10-27 16:17:00,73.9,45.3,30.03,North,4,3.6,4.5,36,0.00,,---,0.00,VWS V14.01,2013-10-27 20:17:00,
2013-10-27 16:22:00,73.8,45.2,30.03,NNE,22,0.0,0.0,36,0.00,,---,0.00,VWS V14.01,2013-10-27 20:22:00,
2013-10-27 16:27:00,73.9,45.3,30.03,ENE,66,3.6,3.6,36,0.00,,---,0.00,VWS V14.01,2013-10-27 20:27:00,
2013-10-27 16:32:00,73.8,45.2,30.03,NNE,21,2.7,2.7,36,0.00,,---,0.00,VWS V14.01,2013-10-27 20:32:00,
2013-10-27 16:37:00,73.8,45.2,30.03,SSE,162,0.0,0.0,36,0.00,,---,0.00,VWS V14.01,2013-10-27 20:37:00,
2013-10-27 16:42:00,73.6,45.0,30.03,North,2,2.7,4.0,36,0.00,,---,0.00,VWS V14.01,2013-10-27 20:42:00,
2013-10-27 16:47:00,73.4,44.8,30.03,East,85,0.0,0.0,36,0.00,,---,0.00,VWS V14.01,2013-10-27 20:47:00,
2013-10-27 16:52:00,73.4,44.8,30.03,East,98,2.7,2.7,36,0.00,,---,0.00,VWS V14.01,2013-10-27 20:52:00,
2013-10-27 16:57:00,73.6,45.0,30.03,SSE,150,0.0,0.0,36,0.00,,---,0.00,VWS V14.01,2013-10-27 20:57:00,
2013-10-27 17:02:00,73.6,45.0,30.03,SSE,157,0.0,0.0,36,0.00,,---,0.00,VWS V14.01,2013-10-27 21:02:00,
2013-10-27 17:07:00,73.4,44.8,30.03,ENE,72,2.2,2.2,36,0.00,,---,0.00,VWS V14.01,2013-10-27 21:07:00,
2013-10-27 17:12:00,73.2,44.7,30.03,ENE,64,0.0,0.0,36,0.00,,---,0.00,VWS V14.01,2013-10-27 21:12:00,
2013-10-27 17:17:00,73.0,44.5,30.03,ESE,102,0.0,3.1,36,0.00,,---,0.00,VWS V14.01,2013-10-27 21:17:00,
2013-10-27 17:22:00,72.9,44.4,30.03,SE,126,0.0,0.0,36,0.00,,---,0.00,VWS V14.01,2013-10-27 21:22:00,
2013-10-27 17:27:00,72.7,44.2,30.03,NE,42,0.0,0.0,36,0.00,,---,0.00,VWS V14.01,2013-10-27 21:27:00,
2013-10-27 17:32:00,72.3,43.9,30.03,ENE,59,0.0,0.0,36,0.00,,---,0.00,VWS V14.01,2013-10-27 21:32:00,
2013-10-27 17:37:00,72.0,43.6,30.03,ENE,66,0.0,0.0,36,0.00,,---,0.00,VWS V14.01,2013-10-27 21:37:00,
2013-10-27 17:42:00,72.0,43.6,30.03,South,174,0.0,0.0,36,0.00,,---,0.00,VWS V14.01,2013-10-27 21:42:00,
2013-10-27 17:47:00,71.8,43.4,30.03,NE,54,0.0,0.0,36,0.00,,---,0.00,VWS V14.01,2013-10-27 21:47:00,
2013-10-27 17:52:00,71.4,43.8,30.03,NE,54,0.0,0.0,37,0.00,,---,0.00,VWS V14.01,2013-10-27 21:52:00,
2013-10-27 17:57:00,71.1,43.5,30.03,NE,54,0.0,0.0,37,0.00,,---,0.00,VWS V14.01,2013-10-27 21:57:00,
2013-10-27 18:02:00,70.7,43.2,30.03,NE,54,0.0,0.0,37,0.00,,---,0.00,VWS V14.01,2013-10-27 22:02:00,
2013-10-27 18:07:00,70.3,42.9,30.03,NE,54,0.0,0.0,37,0.00,,---,0.00,VWS V14.01,2013-10-27 22:07:00,
2013-10-27 18:12:00,69.8,42.4,30.03,NE,54,0.0,0.0,37,0.00,,---,0.00,VWS V14.01,2013-10-27 22:12:00,
2013-10-27 18:17:00,69.3,41.9,30.03,NE,54,0.0,0.0,37,0.00,,---,0.00,VWS V14.01,2013-10-27 22:17:00,
2013-10-27 18:22:00,68.7,41.4,30.03,NE,54,0.0,0.0,37,0.00,,---,0.00,VWS V14.01,2013-10-27 22:22:00,
2013-10-27 18:27:00,68.2,40.9,30.03,NE,54,0.0,0.0,37,0.00,,---,0.00,VWS V14.01,2013-10-27 22:27:00,
2013-10-27 18:32:00,67.5,40.3,30.03,NE,54,0.0,0.0,37,0.00,,---,0.00,VWS V14.01,2013-10-27 22:32:00,
2013-10-27 18:38:00,66.7,39.7,30.03,NE,54,0.0,0.0,37,0.00,,---,0.00,VWS V14.01,2013-10-27 22:38:00,
2013-10-27 18:43:00,65.8,39.5,30.03,NE,54,0.0,0.0,38,0.00,,---,0.00,VWS V14.01,2013-10-27 22:43:00,
2013-10-27 18:48:00,64.8,38.6,30.06,NE,54,0.0,0.0,38,0.00,,---,0.00,VWS V14.01,2013-10-27 22:48:00,
2013-10-27 18:53:00,64.0,37.9,30.06,NE,54,0.0,0.0,38,0.00,,---,0.00,VWS V14.01,2013-10-27 22:53:00,
2013-10-27 18:58:00,63.1,37.1,30.06,NE,54,0.0,0.0,38,0.00,,---,0.00,VWS V14.01,2013-10-27 22:58:00,
2013-10-27 19:03:00,62.6,36.7,30.06,NE,54,0.0,0.0,38,0.00,,---,0.00,VWS V14.01,2013-10-27 23:03:00,
2013-10-27 19:08:00,61.9,36.7,30.06,NE,54,0.0,0.0,39,0.00,,---,0.00,VWS V14.01,2013-10-27 23:08:00,
2013-10-27 19:13:00,61.3,36.2,30.06,NE,54,0.0,0.0,39,0.00,,---,0.00,VWS V14.01,2013-10-27 23:13:00,
2013-10-27 19:18:00,60.8,35.7,30.06,NE,54,0.0,0.0,39,0.00,,---,0.00,VWS V14.01,2013-10-27 23:18:00,
2013-10-27 19:23:00,60.3,35.2,30.06,NE,54,0.0,0.0,39,0.00,,---,0.00,VWS V14.01,2013-10-27 23:23:00,
2013-10-27 19:28:00,59.7,34.7,30.06,NE,54,0.0,0.0,39,0.00,,---,0.00,VWS V14.01,2013-10-27 23:28:00,
2013-10-27 19:33:00,59.2,34.3,30.03,NE,54,0.0,0.0,39,0.00,,---,0.00,VWS V14.01,2013-10-27 23:33:00,
2013-10-27 19:38:00,58.8,33.9,30.03,NE,54,0.0,0.0,39,0.00,,---,0.00,VWS V14.01,2013-10-27 23:38:00,
2013-10-27 19:43:00,58.5,33.6,30.03,NE,54,0.0,0.0,39,0.00,,---,0.00,VWS V14.01,2013-10-27 23:43:00,
2013-10-27 19:48:00,57.9,33.1,30.03,NE,54,0.0,0.0,39,0.00,,---,0.00,VWS V14.01,2013-10-27 23:48:00,
2013-10-27 19:53:00,57.7,33.0,30.03,NE,54,0.0,0.0,39,0.00,,---,0.00,VWS V14.01,2013-10-27 23:53:00,
2013-10-27 19:58:00,57.4,32.7,30.03,NE,54,0.0,0.0,39,0.00,,---,0.00,VWS V14.01,2013-10-27 23:58:00,
2013-10-27 20:03:00,57.2,32.5,30.06,NE,54,0.0,0.0,39,0.00,,---,0.00,VWS V14.01,2013-10-28 00:03:00,
2013-10-27 20:08:00,56.8,32.8,30.06,NE,54,0.0,0.0,40,0.00,,---,0.00,VWS V14.01,2013-10-28 00:08:00,
2013-10-27 20:13:00,56.7,32.6,30.06,NE,54,0.0,0.0,40,0.00,,---,0.00,VWS V14.01,2013-10-28 00:13:00,
2013-10-27 20:18:00,56.5,32.5,30.06,NE,54,0.0,0.0,40,0.00,,---,0.00,VWS V14.01,2013-10-28 00:18:00,
2013-10-27 20:23:00,56.3,32.3,30.06,NE,54,0.0,0.0,40,0.00,,---,0.00,VWS V14.01,2013-10-28 00:23:00,
2013-10-27 20:28:00,56.1,32.2,30.06,NE,54,0.0,0.0,40,0.00,,---,0.00,VWS V14.01,2013-10-28 00:28:00,
2013-10-27 20:33:00,55.9,32.0,30.06,NE,54,0.0,0.0,40,0.00,,---,0.00,VWS V14.01,2013-10-28 00:33:00,
2013-10-27 20:38:00,55.9,32.0,30.06,NE,54,0.0,0.0,40,0.00,,---,0.00,VWS V14.01,2013-10-28 00:38:00,
2013-10-27 20:43:00,55.8,31.8,30.06,NE,54,0.0,0.0,40,0.00,,---,0.00,VWS V14.01,2013-10-28 00:43:00,
2013-10-27 20:48:00,55.8,31.8,30.06,NE,54,0.0,0.0,40,0.00,,---,0.00,VWS V14.01,2013-10-28 00:48:00,
2013-10-27 20:53:00,55.6,31.7,30.06,NE,54,0.0,0.0,40,0.00,,---,0.00,VWS V14.01,2013-10-28 00:53:00,
2013-10-27 20:58:00,55.4,31.5,30.06,NE,54,0.0,0.0,40,0.00,,---,0.00,VWS V14.01,2013-10-28 00:58:00,
2013-10-27 21:03:00,55.4,31.5,30.06,NE,54,0.0,0.0,40,0.00,,---,0.00,VWS V14.01,2013-10-28 01:03:00,
2013-10-27 21:08:00,55.2,31.3,30.06,NE,54,0.0,0.0,40,0.00,,---,0.00,VWS V14.01,2013-10-28 01:08:00,
2013-10-27 21:13:00,55.0,31.2,30.06,NE,54,0.0,0.0,40,0.00,,---,0.00,VWS V14.01,2013-10-28 01:13:00,
2013-10-27 21:18:00,54.7,32.6,30.06,NE,54,0.0,0.0,43,0.00,,---,0.00,VWS V14.01,2013-10-28 01:18:00,
2013-10-27 21:23:00,54.5,32.5,30.06,NE,54,0.0,0.0,43,0.00,,---,0.00,VWS V14.01,2013-10-28 01:23:00,
2013-10-27 21:28:00,54.3,32.3,30.06,NE,54,0.0,0.0,43,0.00,,---,0.00,VWS V14.01,2013-10-28 01:28:00,
2013-10-27 21:33:00,54.1,32.2,30.06,NE,54,0.0,0.0,43,0.00,,---,0.00,VWS V14.01,2013-10-28 01:33:00,
2013-10-27 21:38:00,54.0,32.0,30.06,NE,54,0.0,0.0,43,0.00,,---,0.00,VWS V14.01,2013-10-28 01:38:00,
2013-10-27 21:43:00,53.8,31.8,30.06,NE,54,0.0,0.0,43,0.00,,---,0.00,VWS V14.01,2013-10-28 01:43:00,
2013-10-27 21:48:00,53.6,31.7,30.06,NE,54,0.0,0.0,43,0.00,,---,0.00,VWS V14.01,2013-10-28 01:48:00,
2013-10-27 21:54:00,53.4,31.5,30.06,NE,54,0.0,0.0,43,0.00,,---,0.00,VWS V14.01,2013-10-28 01:54:00,
2013-10-27 21:59:00,53.2,31.3,30.06,NE,54,0.0,0.0,43,0.00,,---,0.00,VWS V14.01,2013-10-28 01:59:00,
2013-10-27 22:04:00,53.2,31.3,30.06,NE,54,0.0,0.0,43,0.00,,---,0.00,VWS V14.01,2013-10-28 02:04:00,
2013-10-27 22:09:00,53.2,31.3,30.06,NE,54,0.0,0.0,43,0.00,,---,0.00,VWS V14.01,2013-10-28 02:09:00,
2013-10-27 22:14:00,53.2,31.3,30.06,NE,54,0.0,0.0,43,0.00,,---,0.00,VWS V14.01,2013-10-28 02:14:00,
2013-10-27 22:19:00,53.1,31.2,30.06,NE,54,0.0,0.0,43,0.00,,---,0.00,VWS V14.01,2013-10-28 02:19:00,
2013-10-27 22:24:00,53.1,31.2,30.06,NE,54,0.0,0.0,43,0.00,,---,0.00,VWS V14.01,2013-10-28 02:24:00,
2013-10-27 22:29:00,53.1,31.2,30.06,NE,54,0.0,0.0,43,0.00,,---,0.00,VWS V14.01,2013-10-28 02:29:00,
2013-10-27 22:34:00,53.1,32.8,30.09,NE,54,0.0,0.0,46,0.00,,---,0.00,VWS V14.01,2013-10-28 02:34:00,
2013-10-27 22:39:00,52.9,32.7,30.09,NE,54,0.0,0.0,46,0.00,,---,0.00,VWS V14.01,2013-10-28 02:39:00,
2013-10-27 22:44:00,52.7,32.5,30.09,NE,54,0.0,0.0,46,0.00,,---,0.00,VWS V14.01,2013-10-28 02:44:00,
2013-10-27 22:49:00,52.5,32.3,30.06,NE,54,0.0,0.0,46,0.00,,---,0.00,VWS V14.01,2013-10-28 02:49:00,
2013-10-27 22:54:00,52.3,32.2,30.06,NE,54,0.0,0.0,46,0.00,,---,0.00,VWS V14.01,2013-10-28 02:54:00,
2013-10-27 22:59:00,52.2,32.0,30.06,NE,54,0.0,0.0,46,0.00,,---,0.00,VWS V14.01,2013-10-28 02:59:00,
2013-10-27 23:04:00,52.2,32.0,30.06,NE,54,0.0,0.0,46,0.00,,---,0.00,VWS V14.01,2013-10-28 03:04:00,
2013-10-27 23:09:00,52.0,31.9,30.06,NE,54,0.0,0.0,46,0.00,,---,0.00,VWS V14.01,2013-10-28 03:09:00,
2013-10-27 23:14:00,51.8,31.7,30.06,NE,54,0.0,0.0,46,0.00,,---,0.00,VWS V14.01,2013-10-28 03:14:00,
2013-10-27 23:19:00,51.6,31.5,30.06,NE,54,0.0,0.0,46,0.00,,---,0.00,VWS V14.01,2013-10-28 03:19:00,
2013-10-27 23:24:00,51.4,31.4,30.06,NE,54,0.0,0.0,46,0.00,,---,0.00,VWS V14.01,2013-10-28 03:24:00,
2013-10-27 23:29:00,51.3,31.2,30.06,NE,54,0.0,0.0,46,0.00,,---,0.00,VWS V14.01,2013-10-28 03:29:00,
2013-10-27 23:34:00,51.3,31.2,30.09,NE,54,0.0,0.0,46,0.00,,---,0.00,VWS V14.01,2013-10-28 03:34:00,
2013-10-27 23:39:00,51.1,31.0,30.09,NE,54,0.0,0.0,46,0.00,,---,0.00,VWS V14.01,2013-10-28 03:39:00,
2013-10-27 23:44:00,50.9,30.9,30.09,NE,54,0.0,0.0,46,0.00,,---,0.00,VWS V14.01,2013-10-28 03:44:00,
2013-10-27 23:49:00,50.9,30.9,30.06,NE,54,0.0,0.0,46,0.00,,---,0.00,VWS V14.01,2013-10-28 03:49:00,
2013-10-27 23:54:00,50.7,30.7,30.06,NE,54,0.0,0.0,46,0.00,,---,0.00,VWS V14.01,2013-10-28 03:54:00,
2013-10-27 23:59:00,50.7,30.7,30.06,NE,54,0.0,0.0,46,0.00,,---,0.00,VWS V14.01,2013-10-28 03:59:00,